Flag for Germany Weather past 2 weeks in Landsberg am Lech, Bavaria, Germany

Now
66 °F

Passing clouds.


Feels Like: 66 °F
Forecast: 44 / 66 °F
Wind: 8 mph from Northeast

Location: Landsberg


UV Index: 3 (Moderate)

Visibility: N/A


Pressure: 30.07 "Hg

Humidity: 46%

Dew point: 45 °F

Location of Landsberg am LechLocation

Historic Weather in Landsberg am Lech

°F

Landsberg am Lech temperature yesterday

Maximum temperature yesterday: 61 °F (at 2:20 PM)
Minimum temperature yesterday: 46 °F (at 5:20 AM)
Average temperature yesterday: 53 °F

Past Weeks' High & Low Weather Summary

 TemperatureHumidityPressure
High66 °F (Apr 23, 3:20 PM)100% (Apr 11, 5:20 AM)30.33 "Hg (Apr 11, 5:20 AM)
Low30 °F (Apr 16, 5:20 AM)30% (Apr 17, 3:20 PM)29.62 "Hg (Apr 21, 3:20 AM)
Average46 °F72%30.01 "Hg
* Reported Apr 8 3:20 PM — Apr 23 3:20 PM, Landsberg am Lech, Weather by CustomWeather, © 2014

Note: Actual official high and low records may vary slightly from our data, if they occured in-between our weather recording intervals... More about our weather records

Advertising

Historic Weather Conditions — Data for Previous 24 hours

 ConditionsComfort  
Time TempWeatherWind HumidityBarometerVisibility
3:20 PM
Apr 23
66 °FPassing clouds.7 mph46%30.07 "HgN/A
2:20 PM63 °FPassing clouds.12 mph52%30.09 "HgN/A
1:20 PM61 °FScattered clouds.9 mph59%30.09 "HgN/A
12:20 PM63 °FPassing clouds.8 mph59%30.09 "HgN/A
11:20 AM61 °FScattered clouds.8 mph59%30.12 "HgN/A
10:20 AM57 °FScattered clouds.2 mph72%30.12 "HgN/A
9:20 AM54 °FPassing clouds.1 mph82%30.09 "HgN/A
8:20 AM50 °FPassing clouds.3 mph82%30.09 "HgN/A
7:20 AM43 °FPassing clouds.5 mph87%30.09 "HgN/A
6:20 AM39 °FPassing clouds.3 mph100%30.07 "HgN/A
5:20 AM41 °FPassing clouds.3 mph93%30.07 "HgN/A
4:20 AM43 °FPassing clouds.3 mph93%30.07 "HgN/A
3:20 AM43 °FQuite cool.6 mph93%30.07 "HgN/A
2:20 AM45 °FQuite cool.3 mph87%30.04 "HgN/A
1:20 AM45 °FQuite cool.3 mph93%30.04 "HgN/A
12:20 AM48 °FPassing clouds.3 mph87%30.04 "HgN/A
11:20 PM
Apr 22
48 °FPassing clouds.5 mph87%30.01 "HgN/A
10:20 PM50 °FPassing clouds.5 mph82%30.01 "HgN/A
9:20 PM54 °FPassing clouds.5 mph82%30.01 "HgN/A
8:20 PM55 °FPartly sunny.5 mph72%29.98 "HgN/A
7:20 PM57 °FBroken clouds.6 mph67%29.95 "HgN/A
6:20 PM61 °FBroken clouds.3 mph55%29.95 "HgN/A
5:20 PM61 °FSprinkles. Broken clouds.1 mph52%29.92 "HgN/A
4:20 PM61 °FPartly sunny.2 mph52%29.92 "HgN/A
Weather by CustomWeather, © 2014

See weather overview